TimeCST,TemperatureF,Dew PointF,Humidity,Sea Level PressureIn,VisibilityMPH,Wind Direction,Wind SpeedMPH,Gust SpeedMPH,PrecipitationIn,Events,Conditions,WindDirDegrees,DateUTC
12:52 AM,-13.0,-20.0,71,30.54,-9999.0,WNW,16.1,-,N/A,,Unknown,300,2013-01-21 06:52:00
1:52 AM,-13.0,-20.0,71,30.54,-9999.0,WNW,17.3,-,N/A,,Unknown,300,2013-01-21 07:52:00
2:52 AM,-13.0,-20.0,71,30.54,-9999.0,WNW,15.0,-,N/A,,Unknown,290,2013-01-21 08:52:00
3:52 AM,-13.0,-20.0,71,30.53,-9999.0,WNW,13.8,-,N/A,,Unknown,290,2013-01-21 09:52:00
4:52 AM,-13.0,-20.0,71,30.51,-9999.0,WNW,13.8,20.7,N/A,,Unknown,290,2013-01-21 10:52:00
5:52 AM,-13.0,-18.9,75,30.49,-9999.0,WNW,13.8,-,N/A,,Unknown,290,2013-01-21 11:52:00
6:52 AM,-11.9,-18.0,74,30.50,-9999.0,WNW,13.8,-,N/A,,Unknown,290,2013-01-21 12:52:00
7:52 AM,-11.0,-18.0,71,30.49,-9999.0,WNW,16.1,-,N/A,,Unknown,300,2013-01-21 13:52:00
8:52 AM,-11.0,-17.0,75,30.50,-9999.0,West,11.5,-,N/A,,Unknown,280,2013-01-21 14:52:00
9:52 AM,-9.0,-15.0,75,30.49,-9999.0,WNW,11.5,-,N/A,,Unknown,300,2013-01-21 15:52:00
10:52 AM,-6.0,-13.0,72,30.50,-9999.0,WNW,17.3,-,N/A,,Unknown,300,2013-01-21 16:52:00
11:52 AM,-2.9,-11.0,68,30.48,-9999.0,WNW,16.1,-,N/A,,Unknown,300,2013-01-21 17:52:00
12:52 PM,-2.0,-9.9,69,30.45,-9999.0,WNW,12.7,-,N/A,,Unknown,300,2013-01-21 18:52:00
1:52 PM,-0.0,-9.0,66,30.43,-9999.0,WNW,15.0,-,N/A,,Unknown,300,2013-01-21 19:52:00
2:52 PM,1.0,-8.0,66,30.43,-9999.0,WNW,17.3,-,N/A,,Unknown,300,2013-01-21 20:52:00
3:52 PM,1.0,-9.0,63,30.43,-9999.0,WNW,16.1,-,N/A,,Unknown,300,2013-01-21 21:52:00
4:52 PM,-0.9,-9.0,69,30.42,-9999.0,WNW,10.4,-,N/A,,Unknown,300,2013-01-21 22:52:00
5:52 PM,-2.0,-9.9,69,30.41,-9999.0,WNW,6.9,-,N/A,,Unknown,290,2013-01-21 23:52:00
6:52 PM,-0.9,-8.0,72,30.41,-9999.0,West,5.8,-,N/A,,Unknown,270,2013-01-22 00:52:00
7:52 PM,-0.0,-7.1,72,30.40,-9999.0,WNW,5.8,-,N/A,,Unknown,290,2013-01-22 01:52:00
8:52 PM,1.0,-7.1,69,30.40,-9999.0,WNW,8.1,-,N/A,,Unknown,290,2013-01-22 02:52:00
9:52 PM,1.0,-6.0,72,30.38,-9999.0,WNW,5.8,-,N/A,,Unknown,300,2013-01-22 03:52:00
10:52 PM,1.0,-6.0,72,30.39,-9999.0,WNW,8.1,-,N/A,,Unknown,290,2013-01-22 04:52:00
11:52 PM,1.0,-6.0,72,30.37,-9999.0,WNW,4.6,-,N/A,,Unknown,290,2013-01-22 05:52:00